Lapse_Rate
6.9 7.0 6.9 6.6 6.6 6.7 6.3 6.4 6.4 6.3 5.6 4.7 4.5 5.3 4.2 4.5 4.5 4.6 5.0 5.3 5.5 5.5
7.2 7.1 6.9 6.8 6.5 6.3 6.3 6.1 6.2 6.3 5.9 5.2 4.3 4.9 4.5 4.2 4.4 4.4 4.7 5.2 5.1 5.0
6.6 6.5 6.8 6.9 6.4 6.2 6.0 6.0 6.0 5.9 5.6 5.4 4.6 5.0 3.7 3.7 3.9 4.5 5.0 5.1 4.7 4.6
6.5 6.5 6.6 6.5 6.7 6.0 5.9 5.8 5.8 5.9 5.3 5.1 4.9 4.9 3.9 3.7 4.0 4.6 5.2 4.8 4.5 4.1
6.3 6.6 6.5 6.5 6.2 6.0 6.0 5.8 5.9 5.5 5.5 4.9 5.2 5.0 4.1 4.4 4.4 4.5 5.1 5.0 4.5 4.3
5.9 6.5 6.2 6.4 6.0 6.0 6.0 5.8 5.7 5.5 5.3 5.0 4.7 4.6 3.9 3.9 4.0 4.6 4.8 5.6 5.4 4.7
6.1 5.9 6.1 6.2 6.1 6.0 5.9 5.8 5.6 5.6 5.2 5.2 4.4 4.2 3.9 4.4 4.5 4.6 4.7 5.1 5.6 5.6
5.9 6.2 6.1 6.3 5.8 6.2 5.7 5.7 5.7 5.4 5.4 4.9 4.5 4.0 3.7 4.5 5.1 5.0 5.0 5.1 5.5 5.6
6.3 6.1 6.5 6.4 6.0 5.9 6.1 5.7 5.6 5.4 5.4 5.1 4.5 3.8 3.9 4.4 4.8 5.1 5.0 5.0 5.3 5.1
6.2 6.2 6.3 6.4 6.4 6.5 6.3 6.1 5.8 5.5 5.5 5.3 4.9 4.2 4.4 4.6 4.8 5.2 5.1 4.8 4.9 5.0
6.1 6.4 6.6 6.8 6.3 6.3 6.6 6.3 6.2 5.6 5.6 5.4 5.4 5.3 5.1 4.9 4.8 4.8 5.4 5.5 5.4 5.1
6.0 6.0 6.4 6.6 6.6 6.7 6.6 6.5 6.4 5.9 5.8 5.7 5.6 5.4 5.5 5.4 5.0 4.8 4.9 5.0 5.1 5.3
6.1 6.1 6.1 5.6 5.8 6.0 6.3 6.6 6.4 6.3 5.9 5.8 5.8 5.6 5.4 5.4 5.5 5.2 5.2 5.1 5.1 5.0
5.9 6.0 6.2 6.1 5.6 5.7 6.3 6.1 6.4 6.3 6.0 5.8 5.7 5.6 5.8 5.4 5.4 5.3 5.5 5.5 5.5 5.3
Wind_Speed
8 5 6 8 7 8 7 8 11 13 12 13 15 15 15 12 12 13 11 14 8 7
7 10 9 9 8 7 7 6 7 9 12 12 12 15 16 13 14 13 12 12 11 7
8 8 10 9 10 10 10 10 10 11 10 9 9 12 15 12 13 14 10 9 11 6
9 8 10 9 11 11 12 12 12 13 12 11 10 9 11 10 12 14 11 9 13 10
11 12 8 8 9 9 11 12 15 14 13 12 11 10 11 10 11 13 12 12 11 10
11 11 10 11 7 7 10 12 12 13 14 12 11 11 11 12 11 12 13 13 13 12
12 11 11 12 9 8 10 10 12 13 13 10 9 10 10 11 10 10 11 12 13 13
12 12 11 11 12 9 9 11 12 12 10 9 9 7 9 10 10 10 7 6 7 9
12 12 12 11 12 7 6 7 7 10 11 10 7 13 16 12 9 9 10 8 6 6
12 12 11 11 11 9 4 4 7 8 10 12 9 17 17 15 8 9 9 10 11 9
11 13 12 11 11 10 3 4 6 8 9 9 8 18 19 20 10 10 10 10 11 12
10 11 12 11 10 9 3 2 2 3 6 8 7 18 21 15 9 10 10 10 11 12
10 9 9 9 10 6 4 1 2 3 4 6 7 18 21 14 8 10 9 9 10 20
10 9 6 6 5 6 3 1 1 4 4 5 8 13 22 20 10 10 10 10 10 10
Wind_Direction
201 203 214 195 196 200 202 204 191 191 195 201 185 162 184 182 179 183 183 181 173 176
223 219 210 211 202 197 196 198 179 184 185 188 191 173 181 188 183 183 183 178 178 174
262 226 224 214 206 202 205 194 184 190 175 165 182 179 178 187 175 177 179 171 170 160
339 264 230 218 214 205 203 193 192 193 182 176 167 173 179 178 171 176 170 168 178 176
348 348 243 215 213 199 207 201 199 191 178 177 171 174 169 171 175 174 173 173 174 177
350 342 336 302 225 196 209 202 195 189 179 175 172 173 174 176 178 182 184 179 180 180
342 339 336 331 249 226 217 203 200 187 177 171 164 183 175 174 177 183 183 181 184 179
339 335 337 341 315 230 212 202 202 188 165 151 169 174 172 173 173 173 163 172 179 178
337 337 334 334 331 276 212 199 193 178 175 159 178 171 178 168 165 155 153 146 123 125
331 333 336 332 334 312 225 170 170 171 164 179 182 169 174 168 156 150 160 153 143 137
329 331 334 337 338 327 295 192 179 183 178 171 173 171 171 164 155 147 152 155 153 145
321 324 327 330 331 325 295 210 202 172 155 163 157 167 164 152 140 137 141 144 141 141
309 309 317 320 326 322 312 263 156 139 138 161 155 167 168 153 140 134 127 120 133 144
300 302 299 312 325 315 317 69 123 114 115 133 157 169 170 161 156 151 144 147 145 148